Tracking 18945 objects as of 20-Jan-2018
HD Live streaming from Space Station
objects crossing your sky now

FENGYUN 1C DEB

Track FENGYUN 1C DEB now!
10-day predictions


NORAD ID: 38162
Int'l Code: 1999-025ERK
Perigee: 697.6 km
Apogee: 1,023.8 km
Inclination: 99.8 °
Period: 102.0 minutes
Semi major axis: 7231 km
RCS: 0.0023 m2 (small)
Launch date: May 10, 1999
Source: People's Republic of China (PRC)
Launch site: Taiyaun Space Center, China (TSC)

Note: This is SATELLITE DEBRIS
aabbcc
Your satellite tracking list
Your tracking list is empty




NASA's NSSDC Master Catalog

Two Line Element Set (TLE):
1 38162U 99025ERK 18007.07128949  .00000915  00000-0  41973-3 0  9993
2 38162  99.8150 318.1646 0225543 272.3075  85.2287 14.11694269427198
Source of the keplerian elements: AFSPC